�N����,����,�~����,�C��,���x,�C��,����,���ϕ���,�ő�u�ԕ���,�ő厞����,���˗�,�I�_���x,�n�����x,�ő啗���N��,DTYPE
"20/01/28","00:10",0.0,8.9,82.8,1006.7,123.3,2.7,5.6,117.1,0.00,6.2,8.1,"00:05:08",1
"20/01/28","00:20",0.0,8.9,82.3,1006.7,103.7,2.6,5.2,120.1,0.00,6.1,8.1,"00:19:56",1
"20/01/28","00:30",0.0,9.0,81.6,1006.7,114.5,3.9,9.1,115.2,0.00,6.1,8.2,"00:29:52",1
"20/01/28","00:40",0.0,9.2,80.9,1006.4,121.3,4.2,10.0,113.3,0.00,6.1,8.0,"00:37:14",1
"20/01/28","00:50",0.0,9.1,80.0,1006.0,120.1,4.1,7.4,146.1,0.00,5.9,8.2,"00:43:12",1
"20/01/28","01:00",0.0,9.1,79.5,1006.0,107.0,4.0,9.3,129.2,0.00,5.8,8.1,"00:51:28",1
"20/01/28","01:10",0.0,9.1,79.3,1006.0,105.9,3.4,7.2,119.0,0.00,5.7,8.0,"01:05:16",1
"20/01/28","01:20",0.0,9.2,78.8,1005.7,110.8,3.6,7.7,118.9,0.00,5.8,8.2,"01:15:34",1
"20/01/28","01:30",0.0,9.2,78.3,1006.0,113.6,4.0,9.5,150.5,0.00,5.7,8.2,"01:23:26",1
"20/01/28","01:40",0.0,9.3,78.0,1005.7,99.3,3.9,7.1,105.9,0.00,5.7,8.2,"01:39:46",1
"20/01/28","01:50",0.0,9.4,77.7,1006.2,112.0,4.1,9.5,116.6,0.00,5.7,8.0,"01:43:58",1
"20/01/28","02:00",0.0,9.3,77.9,1006.2,100.7,2.8,6.2,114.7,0.00,5.7,8.0,"01:50:34",1
"20/01/28","02:10",0.0,9.2,78.3,1005.7,114.6,2.6,7.1,120.5,0.00,5.7,8.0,"02:09:50",1
"20/01/28","02:20",0.0,9.3,78.4,1005.5,109.3,3.6,6.7,82.7,0.00,5.8,7.9,"02:13:46",1
"20/01/28","02:30",0.0,9.3,78.4,1005.0,104.7,3.2,6.8,111.8,0.00,5.8,8.2,"02:27:10",1
"20/01/28","02:40",0.0,9.4,78.2,1005.2,116.6,3.2,6.6,124.0,0.00,5.8,8.3,"02:37:00",1
"20/01/28","02:50",0.0,9.6,77.7,1005.0,110.8,3.6,6.3,120.6,0.00,5.9,8.3,"02:48:46",1
"20/01/28","03:00",0.0,9.6,77.0,1005.0,106.9,2.8,4.9,110.6,0.00,5.8,8.1,"02:50:24",1
"20/01/28","03:10",0.0,9.7,76.4,1005.2,108.3,3.0,6.2,88.5,0.00,5.8,8.3,"03:06:54",1
"20/01/28","03:20",0.0,9.9,75.8,1005.2,111.4,3.1,5.2,110.2,0.00,5.9,8.2,"03:12:56",1
"20/01/28","03:30",0.0,9.8,75.8,1004.8,116.9,2.3,6.6,108.7,0.00,5.8,8.3,"03:29:52",1
"20/01/28","03:40",0.0,10.0,75.2,1004.5,115.2,3.6,8.8,132.7,0.00,5.9,8.2,"03:37:04",1
"20/01/28","03:50",0.0,10.2,74.6,1004.8,107.7,3.9,8.6,123.5,0.00,5.9,8.3,"03:49:20",1
"20/01/28","04:00",0.0,10.2,74.3,1004.5,114.8,3.4,6.5,127.0,0.00,5.9,8.2,"03:56:54",1
"20/01/28","04:10",0.0,10.2,74.3,1004.3,114.6,3.4,6.5,112.5,0.00,5.9,8.1,"04:08:06",1
"20/01/28","04:20",0.0,10.2,74.3,1004.5,115.4,3.5,9.4,115.3,0.00,5.9,8.2,"04:14:10",1
"20/01/28","04:30",0.0,10.2,74.3,1004.5,117.3,2.8,5.9,118.1,0.00,5.9,8.4,"04:25:50",1
"20/01/28","04:40",0.0,10.3,74.1,1004.5,110.8,3.1,5.8,107.5,0.00,5.9,8.3,"04:35:14",1
"20/01/28","04:50",0.0,10.3,73.9,1004.5,115.0,3.5,9.5,121.8,0.00,5.9,8.3,"04:42:18",1
"20/01/28","05:00",0.0,10.4,73.7,1004.8,123.4,3.1,6.0,100.6,0.00,6.0,8.6,"04:59:40",1
"20/01/28","05:10",0.0,10.5,73.7,1004.5,114.8,3.1,7.5,116.7,0.00,6.0,8.3,"05:07:14",1
"20/01/28","05:20",0.0,10.5,73.7,1004.1,119.3,2.8,6.0,111.4,0.00,6.0,8.3,"05:13:58",1
"20/01/28","05:30",0.2,10.5,74.1,1004.5,117.7,2.6,5.6,131.0,0.00,6.1,8.5,"05:26:56",1
"20/01/28","05:40",0.0,10.5,73.9,1004.5,109.8,3.1,6.4,113.9,0.00,6.1,8.2,"05:37:16",1
"20/01/28","05:50",0.0,10.6,73.6,1004.8,118.8,3.1,7.1,107.9,0.00,6.1,8.4,"05:49:56",1
"20/01/28","06:00",0.0,10.6,73.4,1004.8,110.9,3.0,6.6,107.7,0.00,6.1,8.5,"05:58:10",1
"20/01/28","06:10",0.0,10.7,73.5,1004.8,116.9,3.0,5.5,111.0,0.00,6.2,8.4,"06:04:08",1
"20/01/28","06:20",0.0,10.7,73.4,1005.0,105.0,3.2,7.1,116.3,0.00,6.2,8.6,"06:10:26",1
"20/01/28","06:30",0.0,10.7,73.5,1005.0,113.4,3.1,6.5,102.7,0.00,6.2,8.4,"06:29:58",1
"20/01/28","06:40",0.0,10.7,73.6,1004.8,111.8,3.5,7.3,103.0,0.00,6.2,8.4,"06:36:48",1
"20/01/28","06:50",0.0,10.8,73.5,1005.0,106.4,2.8,6.5,102.4,0.00,6.3,8.4,"06:42:44",1
"20/01/28","07:00",0.0,10.8,73.3,1004.8,107.3,2.8,6.3,106.7,0.00,6.3,8.7,"06:56:50",1
"20/01/28","07:10",0.0,10.9,73.4,1004.8,112.3,3.1,6.6,113.4,0.00,6.4,8.4,"07:06:24",1
"20/01/28","07:20",0.0,11.0,73.2,1005.2,106.4,3.1,7.0,118.2,0.00,6.4,8.5,"07:14:30",1
"20/01/28","07:30",0.0,11.0,73.3,1005.2,119.3,3.0,7.4,108.3,0.00,6.5,8.6,"07:20:40",1
"20/01/28","07:40",0.0,11.1,73.4,1005.2,106.5,3.5,7.4,119.9,0.00,6.6,8.5,"07:37:30",1
"20/01/28","07:50",0.0,11.2,73.3,1005.2,107.5,3.2,6.7,114.2,0.00,6.6,8.6,"07:41:34",1
"20/01/28","08:00",0.0,11.2,73.3,1005.0,102.8,2.8,5.6,101.6,0.00,6.6,8.4,"07:58:16",1
"20/01/28","08:10",0.0,11.3,73.1,1005.0,94.3,2.8,6.6,124.6,0.00,6.7,8.5,"08:01:28",1
"20/01/28","08:20",0.0,11.4,73.2,1005.2,100.1,3.2,5.6,114.7,0.00,6.8,8.5,"08:17:36",1
"20/01/28","08:30",0.0,11.3,73.4,1005.2,106.2,2.2,5.6,107.4,0.00,6.8,8.6,"08:20:40",1
"20/01/28","08:40",0.0,11.5,73.5,1005.2,114.3,2.2,5.0,133.7,0.00,7.0,8.6,"08:34:48",1
"20/01/28","08:50",0.0,11.5,73.6,1005.2,118.9,3.0,6.3,135.0,0.00,7.0,8.7,"08:41:26",1
"20/01/28","09:00",0.0,11.6,73.7,1005.2,126.1,2.6,5.2,114.8,0.00,7.1,8.7,"08:53:00",1
"20/01/28","09:10",0.0,11.7,73.8,1005.2,120.4,2.5,5.2,103.4,0.02,7.2,8.7,"09:09:18",1
"20/01/28","09:20",0.0,11.8,73.7,1005.0,123.1,2.1,3.6,121.1,0.03,7.3,8.5,"09:15:12",1
"20/01/28","09:30",0.0,12.1,73.1,1005.2,119.1,2.8,4.8,110.7,0.04,7.5,8.7,"09:24:04",1
"20/01/28","09:40",0.0,12.4,72.5,1005.5,114.1,3.1,6.0,110.7,0.05,7.6,8.8,"09:34:32",1
"20/01/28","09:50",0.0,12.6,72.1,1005.2,123.1,2.2,4.7,115.4,0.07,7.8,8.8,"09:43:52",1
"20/01/28","10:00",0.0,12.8,71.5,1005.5,117.2,2.3,5.8,105.5,0.06,7.8,8.8,"09:53:20",1
"20/01/28","10:10",0.0,12.9,71.4,1005.7,113.5,2.1,4.3,104.4,0.06,7.9,9.1,"10:06:32",1
"20/01/28","10:20",0.0,12.9,71.3,1005.7,108.3,2.1,4.5,115.6,0.05,7.9,8.9,"10:12:32",1
"20/01/28","10:30",0.0,13.0,71.4,1005.2,117.3,2.0,4.1,113.2,0.05,8.0,9.0,"10:23:28",1
"20/01/28","10:40",0.0,13.1,71.2,1005.2,114.9,2.1,5.2,110.4,0.05,8.0,9.2,"10:35:28",1
"20/01/28","10:50",0.0,13.2,71.0,1005.2,117.9,2.6,4.9,123.0,0.06,8.1,9.3,"10:42:40",1
"20/01/28","11:00",0.0,13.3,70.9,1005.0,109.1,2.6,5.1,138.8,0.07,8.2,9.2,"10:51:20",1
"20/01/28","11:10",0.0,13.3,70.9,1005.2,105.8,2.6,5.1,110.4,0.06,8.2,9.3,"11:01:28",1
"20/01/28","11:20",0.0,13.4,71.1,1005.2,108.8,2.3,4.1,114.2,0.05,8.3,9.4,"11:14:32",1
"20/01/28","11:30",0.0,13.6,71.2,1004.8,109.4,2.1,4.4,106.5,0.06,8.5,9.7,"11:27:52",1
"20/01/28","11:40",0.0,13.6,71.2,1004.8,125.2,2.0,3.5,115.6,0.06,8.5,9.7,"11:32:56",1
"20/01/28","11:50",0.0,13.7,71.2,1004.8,119.2,2.0,4.0,130.9,0.05,8.6,9.4,"11:40:16",1
"20/01/28","12:00",0.0,13.9,70.8,1004.8,139.3,1.8,5.8,123.7,0.07,8.7,9.7,"11:57:36",1
"20/01/28","12:10",0.0,14.1,70.3,1004.8,148.1,2.1,4.7,122.7,0.07,8.8,9.6,"12:06:58",1
"20/01/28","12:20",0.0,14.1,70.1,1004.3,143.6,2.2,6.0,99.1,0.05,8.8,9.7,"12:17:28",1
"20/01/28","12:30",0.0,14.2,70.2,1004.3,149.2,1.6,4.1,131.3,0.06,8.9,9.9,"12:22:08",1
"20/01/28","12:40",0.0,14.2,69.9,1004.3,164.9,2.7,7.4,130.7,0.05,8.8,9.7,"12:37:20",1
"20/01/28","12:50",0.0,14.2,70.3,1004.1,148.1,2.0,4.5,118.1,0.06,8.9,9.9,"12:49:12",1
"20/01/28","13:00",0.0,14.4,70.3,1004.1,163.4,2.1,4.1,195.5,0.06,9.1,10.0,"12:51:28",1
"20/01/28","13:10",0.0,14.5,70.6,1004.1,149.1,1.2,2.9,81.3,0.07,9.3,9.8,"13:00:56",1
"20/01/28","13:20",0.0,14.5,70.3,1003.8,140.5,1.7,4.0,158.2,0.06,9.2,10.0,"13:13:52",1
"20/01/28","13:30",0.0,14.5,70.5,1003.8,136.1,1.5,2.9,139.5,0.06,9.2,9.9,"13:20:24",1
"20/01/28","13:40",0.0,14.5,70.4,1003.6,157.4,1.7,3.9,141.5,0.06,9.2,10.0,"13:31:52",1
"20/01/28","13:50",0.0,14.6,70.7,1003.6,154.9,1.5,3.6,122.5,0.07,9.4,10.1,"13:43:28",1
"20/01/28","14:00",0.0,14.7,70.4,1003.1,144.7,1.8,4.1,115.2,0.05,9.4,10.1,"13:55:04",1
"20/01/28","14:10",0.0,14.5,70.8,1003.4,110.3,1.8,4.0,113.1,0.05,9.3,10.2,"14:07:12",1
"20/01/28","14:20",0.0,14.5,71.2,1003.4,99.0,1.1,1.9,105.1,0.04,9.4,10.1,"14:18:00",1
"20/01/28","14:30",0.0,14.3,71.6,1003.6,109.8,1.6,2.7,112.7,0.03,9.3,10.3,"14:23:52",1
"20/01/28","14:40",0.0,14.4,72.3,1003.1,99.9,1.3,2.5,108.2,0.04,9.5,10.3,"14:39:04",1
"20/01/28","14:50",0.0,14.5,72.3,1002.9,95.4,1.2,3.1,111.7,0.04,9.6,10.5,"14:42:16",1
"20/01/28","15:00",0.0,14.3,72.6,1003.1,87.3,1.0,2.2,110.9,0.02,9.5,10.5,"14:52:24",1
"20/01/28","15:10",0.0,14.3,73.1,1003.4,108.7,1.2,2.5,123.7,0.02,9.6,10.5,"15:07:44",1
"20/01/28","15:20",0.0,14.3,73.3,1003.4,110.4,1.1,2.1,118.0,0.01,9.6,10.6,"15:13:12",1
"20/01/28","15:30",0.0,14.1,73.6,1003.4,152.8,0.7,1.9,105.9,0.01,9.5,10.2,"15:20:48",1
"20/01/28","15:40",0.0,14.1,74.1,1003.4,147.0,0.3,1.0,132.9,0.00,9.6,10.4,"15:30:16",1
"20/01/28","15:50",0.0,14.0,74.6,1003.4,146.0,0.3,1.1,157.3,0.00,9.6,10.5,"15:44:56",1
"20/01/28","16:00",0.0,14.1,74.7,1002.9,183.6,0.6,1.4,142.9,0.00,9.7,10.4,"15:52:08",1
"20/01/28","16:10",0.0,14.1,74.8,1003.1,116.4,0.7,1.6,99.1,0.00,9.7,10.6,"16:07:04",1
"20/01/28","16:20",0.0,14.0,74.9,1003.4,88.0,0.6,1.7,88.5,0.00,9.7,10.4,"16:15:36",1
"20/01/28","16:30",0.0,14.0,75.0,1002.9,348.8,0.7,1.2,339.6,0.00,9.7,10.2,"16:21:36",1
"20/01/28","16:40",0.0,14.0,75.1,1002.9,27.2,0.5,1.1,109.7,0.00,9.7,10.6,"16:32:00",1
"20/01/28","16:50",0.0,13.8,75.5,1003.1,274.3,0.2,1.2,334.3,0.00,9.6,10.2,"16:41:52",1
"20/01/28","17:00",0.0,13.7,76.0,1003.4,330.6,0.6,1.4,109.3,0.00,9.6,10.4,"16:56:16",1
"20/01/28","17:10",0.0,13.7,76.3,1003.4,114.4,0.5,1.4,249.1,0.00,9.6,10.5,"17:09:20",1
"20/01/28","17:20",0.0,13.5,77.0,1003.6,298.5,0.8,1.9,248.7,0.00,9.6,10.4,"17:18:16",1
"20/01/28","17:30",0.0,13.5,77.8,1003.4,243.6,1.5,2.9,190.9,0.00,9.7,10.4,"17:27:20",1
"20/01/28","17:40",0.0,13.6,77.9,1003.4,281.5,1.1,1.8,325.8,0.00,9.9,10.4,"17:38:24",1
"20/01/28","17:50",0.0,13.4,78.6,1003.6,304.6,1.1,1.9,318.1,0.00,9.8,10.3,"17:45:44",1
"20/01/28","18:00",0.0,13.1,79.6,1003.4,333.9,1.3,2.0,343.2,0.00,9.7,10.2,"17:56:40",1
"20/01/28","18:10",0.0,12.7,81.0,1003.4,317.6,1.5,2.1,330.7,0.00,9.6,10.3,"18:03:12",1
"20/01/28","18:20",0.0,12.5,82.9,1003.8,324.7,2.0,3.2,323.2,0.00,9.7,10.2,"18:13:34",1
"20/01/28","18:30",0.0,12.2,84.4,1003.4,328.9,1.5,2.6,321.3,0.00,9.7,10.2,"18:22:22",1
"20/01/28","18:40",0.2,12.0,85.7,1003.6,321.3,0.7,1.6,315.7,0.00,9.7,10.3,"18:36:56",1
"20/01/28","18:50",0.4,11.8,86.7,1003.8,332.1,0.8,1.7,336.0,0.00,9.7,10.3,"18:41:04",1
"20/01/28","19:00",0.2,11.8,87.7,1003.6,359.0,0.7,1.6,356.7,0.00,9.9,10.2,"18:59:36",1
"20/01/28","19:10",0.2,11.6,88.4,1004.1,342.2,1.1,1.9,336.1,0.00,9.8,10.3,"19:04:10",1
"20/01/28","19:20",0.2,11.6,89.1,1004.3,352.4,0.8,1.6,352.6,0.00,9.9,10.2,"19:15:52",1
"20/01/28","19:30",0.2,11.6,89.8,1004.3,349.6,1.0,2.4,1.5,0.00,10.0,10.2,"19:27:12",1
"20/01/28","19:40",0.0,11.5,90.4,1004.1,308.7,1.1,2.6,352.8,0.00,10.0,10.2,"19:30:48",1
"20/01/28","19:50",0.0,11.5,90.9,1004.1,313.6,1.1,2.2,331.1,0.00,10.1,10.1,"19:48:02",1
"20/01/28","20:00",0.0,11.4,91.2,1004.3,281.5,1.1,1.8,336.0,0.00,10.1,10.2,"19:50:08",1
"20/01/28","20:10",0.0,11.5,91.6,1004.3,322.2,1.6,2.2,321.4,0.00,10.2,10.2,"20:02:32",1
"20/01/28","20:20",0.0,11.3,91.9,1004.1,321.3,1.3,2.0,338.9,0.00,10.1,10.2,"20:10:24",1
"20/01/28","20:30",0.0,11.2,92.2,1004.1,301.2,1.2,1.9,306.0,0.00,10.0,10.2,"20:24:48",1
"20/01/28","20:40",0.0,11.2,92.5,1004.1,297.2,1.0,1.1,294.6,0.00,10.1,10.1,"20:31:12",1
"20/01/28","20:50",0.0,11.2,92.8,1003.8,280.0,1.0,1.3,303.8,0.00,10.1,10.1,"20:44:48",1
"20/01/28","21:00",0.0,11.1,92.9,1003.8,297.4,1.0,1.4,313.4,0.00,10.0,10.2,"20:50:40",1
"20/01/28","21:10",0.0,11.1,93.1,1003.8,297.6,0.8,1.4,299.1,0.00,10.1,10.0,"21:00:40",1
"20/01/28","21:20",0.0,11.1,93.3,1003.1,308.3,0.8,1.4,314.5,0.00,10.1,10.1,"21:11:04",1
"20/01/28","21:30",0.0,11.0,93.4,1003.8,294.5,0.7,1.3,316.0,0.00,10.0,10.2,"21:20:16",1
"20/01/28","21:40",0.0,11.0,93.6,1003.8,285.5,1.1,1.8,322.6,0.00,10.0,10.1,"21:33:44",1
"20/01/28","21:50",0.0,11.0,93.8,1003.8,290.5,1.2,2.2,324.4,0.00,10.1,10.1,"21:44:40",1
"20/01/28","22:00",0.0,11.2,94.0,1004.3,309.8,1.2,2.4,315.5,0.00,10.3,10.2,"21:53:12",1
"20/01/28","22:10",0.0,11.2,94.1,1004.1,238.0,0.7,1.8,265.2,0.00,10.3,10.0,"22:03:04",1
"20/01/28","22:20",0.0,11.2,94.2,1003.8,297.3,1.0,2.1,330.2,0.00,10.3,10.1,"22:15:28",1
"20/01/28","22:30",0.0,11.0,94.3,1003.8,322.0,1.3,2.0,323.9,0.00,10.2,10.0,"22:25:04",1
"20/01/28","22:40",0.2,11.0,94.6,1003.6,323.8,0.6,1.6,314.0,0.00,10.2,9.8,"22:30:02",1
"20/01/28","22:50",0.0,10.9,94.7,1003.4,317.9,1.6,1.8,318.5,0.00,10.1,9.8,"22:44:56",1
"20/01/28","23:00",0.0,10.7,94.9,1003.4,306.1,1.0,1.3,304.8,0.00,10.0,10.0,"22:50:08",1
"20/01/28","23:10",0.0,10.7,94.9,1003.6,302.1,1.0,1.1,312.3,0.00,10.0,9.9,"23:00:24",1
"20/01/28","23:20",0.0,10.7,95.1,1003.6,303.8,1.2,1.6,315.5,0.00,10.0,10.0,"23:11:12",1
"20/01/28","23:30",0.0,10.8,95.2,1003.6,302.7,1.2,1.7,316.6,0.00,10.1,10.1,"23:20:32",1
"20/01/28","23:40",0.0,10.8,95.2,1003.4,300.9,1.0,1.2,306.0,0.00,10.1,9.9,"23:30:56",1
"20/01/28","23:50",0.0,10.9,95.3,1003.4,290.3,0.7,2.0,312.9,0.00,10.2,10.0,"23:40:02",1
"20/01/28","24:00",0.0,10.8,95.4,1003.1,317.5,1.5,2.0,307.3,0.00,10.1,10.1,"23:50:56",1
